User: anonymous   Login
Location: Brede
(50.9167°N, 0.6000°E)
Time: 02:32:33
(UTC+00:00)
Language:

Nadezhda 2 Rocket - Orbit

View from above orbital plane
View from above orbital plane
View from above satellite
View from above satellite

Ground track
Ground track

The orbit data is extracted from the following two-line orbital elements,

1 20509U 90017B   20302.79786961 -.00000047  00000-0 -64096-4 0  9995
2 20509  82.9505 134.6936 0042583 329.8109  30.0593 13.75595581539368
Epoch (UTC): 28 October 2020 19:08:55
Eccentricity: 0.0042583
inclination: 82.9505°
perigee height: 948 km
apogee height: 1011 km
right ascension of ascending node: 134.6936°
argument of perigee: 329.8109°
revolutions per day: 13.75595581
mean anomaly at epoch: 30.0593°
orbit number at epoch: 53936

The dashed part of the orbit path shows where the satellite is in the earth's shadow,  

DLR